Location: Sternwarte auf dem Internationalen Platz Vogelsang IP
(50.5721°N, 6.4398°E)
Time: 22:58:46
(UTC+01:00)

S-56A Canister/Altair - Visible Passes

Search period start: 05 December 2025 00:00
Search period end: 15 December 2025 00:00
Orbit: 632 x 2485 km, 38.9° (Epoch: 05 December)

Date Brightness Start Highest point End Pass type
(mag) Time Alt. Az. Time Alt. Az. Time Alt. Az.
05 Dec 10.4 03:43:38 28° SSE 03:43:38 28° SSE 03:50:22 10° SE visible
05 Dec 10.5 05:40:54 18° SW 05:43:46 20° SSW 05:52:10 10° S visible
06 Dec 10.8 03:10:52 21° SE 03:10:52 21° SE 03:14:48 10° SE visible
06 Dec 10.5 05:08:09 21° SSW 05:08:39 21° SSW 05:17:10 10° SSE visible
07 Dec 11.2 02:38:09 13° SE 02:38:09 13° SE 02:39:13 10° SE visible
07 Dec 10.5 04:35:25 21° SSW 04:35:25 21° SSW 04:42:03 10° SSE visible
08 Dec 10.7 04:02:44 18° S 04:02:44 18° S 04:06:51 10° SSE visible
09 Dec 11.0 03:30:02 13° SSE 03:30:02 13° SSE 03:31:36 10° SSE visible
